Location: Bremen
(53.0793°N, 8.8017°E)
Time: 10:59:05
(UTC+02:00)

Altair - Pass Details

Date: 17 April 2024
Orbit: 1501 x 1682 km, 47.2° (Epoch: 17 May)

Event Time Altitude Azimuth Distance (km) Brightness Sun altitude
Rises 22:45:38 0° 248° (WSW) 4,892 10.4 -17.7°
Reaches altitude 10° 22:48:52 10° 245° (WSW) 3,886 9.8 -18.0°
Maximum altitude 22:58:30 60° 169° (S) 1,804 7.5 -18.9°
Drops below altitude 10° 23:07:48 10° 93° (E) 3,751 9.2 -19.7°
Enters shadow 23:10:14 - 90° (E) 4,513 9.6 -19.9°
Sets 23:10:51 0° 90° (E) 4,713 - -20.0°
